Regional Weather Roundup
Issued by NWS

Home | Current Version | Previous Version | Text Only | Print | Product List | Glossary Off
Versions: 1 2 3 4 5 6 7 8 9 10 11 12 13 14 15 16 17 18 19 20 21 22 23 24 25 26 27 28 29 30 31 32 33 34 35 36 37 38 39 40 41 42 43 44 45 46 47 48 49 50

000
ASUS43 KBIS 061901
RWRND

NORTH DAKOTA REGIONAL WEATHER ROUNDUP
NATIONAL WEATHER SERVICE BISMARCK ND
100 PM CST FRI MAR 06 2015

NOTE: "FAIR" INDICATES FEW OR NO CLOUDS BELOW 12,000 FEET WITH NO
SIGNIFICANT WEATHER AND/OR OBSTRUCTIONS TO VISIBILITY.


NDZ001>003-009>011-017-062000-
NORTHWEST NORTH DAKOTA

CITY           SKY/WX    TMP DP  RH WIND       PRES   REMARKS
WILLISTON      PTSUNNY   41  24  51 SW16      29.99F
MINOT          CLOUDY    35  17  47 S16       29.99F
MINOT AFB      MOSUNNY   34  22  60 SW12      29.97F
$$

NDZ018>021-031>035-040>046-062000-
SOUTHWEST NORTH DAKOTA

CITY           SKY/WX    TMP DP  RH WIND       PRES   REMARKS
BISMARCK       CLOUDY    38  16  40 SW7       30.08F
DICKINSON      CLOUDY    50  18  28 W16       30.01F
GARRISON         N/A     34  22  61 SW9       30.03F
HETTINGER ARPT PTSUNNY   52  18  26 W18G24    30.06F
$$

NDZ004>008-012>016-024-026-027-054-062000-
NORTHEAST NORTH DAKOTA

CITY           SKY/WX    TMP DP  RH WIND       PRES   REMARKS
GRAND FORKS    PTSUNNY   35  17  47 W8        30.06F
GRND FRKS AFB  SUNNY     36  15  42 W10       30.05F
DEVILS LAKE    PTSUNNY   30  21  69 W14       30.04S WCI  20
$$

NDZ022-023-025-028>030-036>039-047>053-062000-
SOUTHEAST NORTH DAKOTA

CITY           SKY/WX    TMP DP  RH WIND       PRES   REMARKS
FARGO          SUNNY     35  18  49 NW12      30.09S
JAMESTOWN      SUNNY     34  19  54 W9        30.07S
$$



USA.gov is the U.S. government's official web portal to all federal, state and local government web resources and services.